| time (UTC) | temp C | wind direction | speed KPH | gust KPH | rain 1hr cm | rain 24hr cm | rain mn cm | humidity % | barometer mb |
| 20260504234519 | 16 | 177 | 6.4 | 12.9 | 0.00 | 0.00 | 0.00 | 41 | 1009.7 |
| 20260504233516 | 16 | 145 | 6.4 | 12.9 | 0.00 | 0.00 | 0.00 | 42 | 1009.7 |
| 20260504232516 | 17 | 165 | 9.7 | 16.1 | 0.00 | 0.00 | 0.00 | 41 | 1009.6 |
| 20260504231520 | 17 | 215 | 8.0 | 16.1 | 0.00 | 0.00 | 0.00 | 42 | 1009.6 |
| 20260504230520 | 17 | 188 | 9.7 | 20.9 | 0.00 | 0.00 | 0.00 | 41 | 1009.7 |
| 20260504225520 | 16 | 200 | 6.4 | 12.9 | 0.00 | 0.00 | 0.00 | 41 | 1009.6 |
| 20260504224540 | 17 | 189 | 9.7 | 16.1 | 0.00 | 0.00 | 0.00 | 42 | 1009.6 |
| 20260504223517 | 16 | 196 | 9.7 | 14.5 | 0.00 | 0.00 | 0.00 | 43 | 1009.5 |
| 20260504222521 | 16 | 184 | 8.0 | 17.7 | 0.00 | 0.00 | 0.00 | 42 | 1009.6 |
| 20260504221520 | 16 | 198 | 8.0 | 14.5 | 0.00 | 0.00 | 0.00 | 42 | 1009.6 |
| 20260504220601 | 16 | 220 | 9.7 | 19.3 | 0.00 | 0.00 | 0.00 | 42 | 1009.6 |
| 20260504215518 | 16 | 226 | 8.0 | 19.3 | 0.00 | 0.00 | 0.00 | 42 | 1009.7 |
| 20260504214518 | 16 | 204 | 9.7 | 17.7 | 0.00 | 0.00 | 0.00 | 43 | 1009.8 |
| 20260504213518 | 17 | 189 | 9.7 | 20.9 | 0.00 | 0.00 | 0.00 | 42 | 1009.8 |
| 20260504212521 | 16 | 156 | 9.7 | 14.5 | 0.00 | 0.00 | 0.00 | 43 | 1009.8 |
| 20260504211518 | 17 | 204 | 8.0 | 14.5 | 0.00 | 0.00 | 0.00 | 43 | 1009.8 |
| 20260504210519 | 17 | 206 | 9.7 | 20.9 | 0.00 | 0.00 | 0.00 | 42 | 1009.8 |
| 20260504205519 | 17 | 224 | 4.8 | 9.7 | 0.00 | 0.00 | 0.00 | 43 | 1009.9 |
| 20260504204520 | 17 | 175 | 6.4 | 14.5 | 0.00 | 0.00 | 0.00 | 43 | 1009.8 |
| 20260504203519 | 17 | 212 | 8.0 | 14.5 | 0.00 | 0.00 | 0.00 | 42 | 1009.8 |
| 20260504202519 | 17 | 181 | 11.3 | 20.9 | 0.00 | 0.00 | 0.00 | 42 | 1009.9 |
| 20260504201540 | 17 | 213 | 6.4 | 14.5 | 0.00 | 0.00 | 0.00 | 43 | 1009.9 |
| 20260504200520 | 16 | 205 | 9.7 | 20.9 | 0.00 | 0.00 | 0.00 | 43 | 1009.9 |
| 20260504195516 | 16 | 236 | 8.0 | 14.5 | 0.00 | 0.00 | 0.00 | 43 | 1009.9 |
| 20260504194537 | 16 | 144 | 8.0 | 16.1 | 0.00 | 0.00 | 0.00 | 43 | 1010.1 |
| 20260504193537 | 16 | 200 | 6.4 | 14.5 | 0.00 | 0.00 | 0.00 | 43 | 1010.1 |
| 20260504192517 | 16 | 220 | 8.0 | 14.5 | 0.00 | 0.00 | 0.00 | 44 | 1010.2 |
| 20260504191517 | 16 | 200 | 3.2 | 8.0 | 0.00 | 0.00 | 0.00 | 42 | 1010.3 |
| 20260504190518 | 16 | 155 | 9.7 | 16.1 | 0.00 | 0.00 | 0.00 | 44 | 1010.5 |
| 20260504185518 | 16 | 181 | 8.0 | 14.5 | 0.00 | 0.00 | 0.00 | 44 | 1010.6 |
| 20260504184521 | 16 | 208 | 4.8 | 16.1 | 0.00 | 0.00 | 0.00 | 44 | 1010.7 |
| 20260504183538 | 16 | 215 | 8.0 | 16.1 | 0.00 | 0.00 | 0.00 | 44 | 1010.7 |
| 20260504182538 | 15 | 188 | 8.0 | 14.5 | 0.00 | 0.00 | 0.00 | 45 | 1010.9 |
| 20260504181518 | 15 | 196 | 9.7 | 17.7 | 0.00 | 0.00 | 0.00 | 45 | 1010.9 |
| 20260504180519 | 15 | 185 | 6.4 | 12.9 | 0.00 | 0.00 | 0.00 | 46 | 1011.1 |
| 20260504175518 | 15 | 188 | 8.0 | 16.1 | 0.00 | 0.00 | 0.00 | 45 | 1011.2 |
| 20260504174519 | 15 | 244 | 9.7 | 17.7 | 0.00 | 0.00 | 0.00 | 45 | 1011.2 |
| 20260504173519 | 15 | 207 | 8.0 | 16.1 | 0.00 | 0.00 | 0.00 | 46 | 1011.4 |
| 20260504172519 | 14 | 166 | 9.7 | 17.7 | 0.00 | 0.00 | 0.00 | 46 | 1011.5 |
| 20260504171540 | 13 | 173 | 8.0 | 19.3 | 0.00 | 0.00 | 0.00 | 45 | 1011.6 |
| 20260504170520 | 13 | 214 | 6.4 | 12.9 | 0.00 | 0.00 | 0.00 | 46 | 1011.7 |
| 20260504150538 | 11 | 148 | 11.3 | 20.9 | 0.00 | 0.00 | 0.00 | 50 | 1012.7 |
| 20260504140520 | 10 | 187 | 8.0 | 17.7 | 0.00 | 0.00 | 0.00 | 51 | 1012.4 |
| 20260504130520 | 10 | 162 | 8.0 | 11.3 | 0.00 | 0.00 | 0.00 | 53 | 1011.9 |
| 20260504110531 | 5 | 33 | 3.2 | 8.0 | 0.00 | 0.00 | 0.00 | 90 | 1010.9 |
| 20260504100518 | 10 | 154 | 8.0 | 11.3 | 0.00 | 0.00 | 0.00 | 70 | 1009.6 |
| 20260504081519 | 6 | 162 | 3.2 | 4.8 | 0.00 | 0.00 | 0.00 | 92 | 1008.9 |
| 20260504080520 | 6 | 238 | 1.6 | 3.2 | 0.00 | 0.00 | 0.00 | 91 | 1009.0 |
| 20260504050519 | 8 | 293 | 1.6 | 4.8 | 0.00 | 0.00 | 0.00 | 80 | 1008.7 |
| 20260504045536 | 9 | 261 | 1.6 | 3.2 | 0.00 | 0.00 | 0.00 | 81 | 1008.6 |
| 20260504044520 | 10 | 212 | 1.6 | 4.8 | 0.00 | 0.00 | 0.00 | 75 | 1008.6 |
| 20260504043520 | 10 | 235 | 3.2 | 6.4 | 0.00 | 0.00 | 0.00 | 72 | 1008.5 |
| 20260504042520 | 10 | 244 | 1.6 | 6.4 | 0.00 | 0.00 | 0.00 | 71 | 1008.4 |
| 20260504041520 | 11 | 258 | 1.6 | 3.2 | 0.00 | 0.00 | 0.00 | 69 | 1008.3 |
| 20260504040518 | 11 | 228 | 3.2 | 6.4 | 0.00 | 0.00 | 0.00 | 65 | 1008.2 |
| 20260504035517 | 11 | 337 | 1.6 | 4.8 | 0.00 | 0.00 | 0.00 | 65 | 1008.1 |
| 20260504034517 | 11 | 301 | 0.0 | 3.2 | 0.00 | 0.00 | 0.00 | 68 | 1008.0 |
| 20260504033518 | 12 | 216 | 3.2 | 6.4 | 0.00 | 0.00 | 0.00 | 63 | 1007.8 |
| 20260504032518 | 13 | 332 | 0.0 | 1.6 | 0.00 | 0.00 | 0.00 | 59 | 1007.8 |
| 20260504031518 | 14 | 284 | 1.6 | 4.8 | 0.00 | 0.00 | 0.00 | 59 | 1007.7 |
| 20260504030518 | 14 | 210 | 0.0 | 3.2 | 0.00 | 0.00 | 0.00 | 55 | 1007.5 |
| 20260504025519 | 13 | 163 | 3.2 | 4.8 | 0.00 | 0.00 | 0.00 | 64 | 1007.4 |
| 20260504024522 | 14 | 329 | 1.6 | 3.2 | 0.00 | 0.00 | 0.00 | 60 | 1007.3 |
| 20260504023518 | 15 | 204 | 1.6 | 3.2 | 0.00 | 0.00 | 0.00 | 60 | 1007.3 |
| 20260504022518 | 15 | 312 | 0.0 | 1.6 | 0.00 | 0.00 | 0.00 | 57 | 1007.2 |
| 20260504021519 | 17 | 241 | 1.6 | 3.2 | 0.00 | 0.00 | 0.00 | 55 | 1007.2 |
| 20260504020519 | 17 | 135 | 1.6 | 4.8 | 0.00 | 0.00 | 0.00 | 50 | 1007.1 |
| 20260504015516 | 19 | 277 | 1.6 | 3.2 | 0.00 | 0.00 | 0.00 | 48 | 1007.2 |
| 20260504014520 | 20 | 293 | 1.6 | 4.8 | 0.00 | 0.00 | 0.00 | 43 | 1007.2 |
| 20260504013519 | 21 | 277 | 3.2 | 6.4 | 0.00 | 0.00 | 0.00 | 39 | 1007.2 |
| 20260504012520 | 21 | 300 | 4.8 | 8.0 | 0.00 | 0.00 | 0.00 | 41 | 1007.2 |
| 20260504011517 | 22 | 350 | 6.4 | 9.7 | 0.00 | 0.00 | 0.00 | 35 | 1007.3 |
| 20260504010517 | 22 | 348 | 6.4 | 12.9 | 0.00 | 0.00 | 0.00 | 35 | 1007.3 |
| 20260504005537 | 22 | 347 | 3.2 | 6.4 | 0.00 | 0.00 | 0.00 | 35 | 1007.5 |
| 20260504004521 | 21 | 4 | 3.2 | 4.8 | 0.00 | 0.00 | 0.00 | 36 | 1007.6 |
| 20260504003521 | 21 | 356 | 6.4 | 11.3 | 0.00 | 0.00 | 0.00 | 36 | 1007.6 |
| 20260504002538 | 22 | 13 | 9.7 | 16.1 | 0.00 | 0.00 | 0.00 | 32 | 1007.6 |
| 20260504001518 | 22 | 10 | 9.7 | 17.7 | 0.00 | 0.00 | 0.00 | 32 | 1007.6 |
| 20260504000558 | 23 | 15 | 8.0 | 19.3 | 0.00 | 0.00 | 0.00 | 31 | 1007.7 |
| 20260503235519 | 22 | 9 | 8.0 | 16.1 | 0.00 | 0.00 | 0.00 | 34 | 1007.9 |